Flag for Poland Weather past 2 weeks in Sosnowiec, Poland

Now
34 °F

Passing clouds.


Feels Like: 30 °F
Forecast: 32 / 41 °F
Wind: 5 mph from South

Location: Katowice Airport

Current Time: Mar 3, 2015 at 9:31:17 PM

Latest Report: Mar 3, 2015 at 9:00 PM


Visibility: N/A

Pressure: 30.09 "Hg

Humidity: 81%

Dew point: 28 °F

Location of SosnowiecLocation

Historic Weather in Sosnowiec — Graph

°F

Sosnowiec temperature yesterday

Maximum temperature yesterday: 46 °F (at 12:30 PM)
Minimum temperature yesterday: 34 °F (at 10:00 PM)
Average temperature yesterday: 41 °F

Past Weeks' High & Low Weather Summary

 TemperatureHumidityPressure
High52 °F (Feb 23, 3:00 PM)100% (Feb 22, 2:30 AM)30.69 "Hg (Feb 22, 2:30 AM)
Low21 °F (Feb 17, 4:30 AM)29% (Feb 21, 1:00 PM)29.50 "Hg (Mar 2, 11:30 AM)
Average38 °F80%29.99 "Hg
* Reported Feb 16 8:00 PM — Mar 3 8:00 PM, Sosnowiec, Weather by CustomWeather, © 2015

Note: Actual official high and low records may vary slightly from our data, if they occured in-between our weather recording intervals... More about our weather records

Advertising

Sosnowiec weather history for previous 24 hours

 ConditionsComfort  
Time TempWeatherWind HumidityBarometerVisibility
8:00 PM
Tue, Mar 3
34 °FClear.6 mph81%30.09 "Hg10 mi
7:30 PM36 °FPassing clouds.7 mph75%30.09 "HgN/A
7:00 PM36 °FPassing clouds.12 mph75%30.09 "HgN/A
6:30 PM37 °FClear.9 mph70%30.09 "Hg10 mi
6:00 PM37 °FClear.16 mph70%30.09 "Hg10 mi
5:30 PM39 °FPassing clouds.12 mph61%30.07 "HgN/A
5:00 PM41 °FScattered clouds.10 mph61%30.07 "HgN/A
4:30 PM39 °FSnow flurries. Scattered clouds.15 mph65%30.07 "HgN/A
4:00 PM39 °FScattered clouds.13 mph65%30.04 "HgN/A
3:30 PM41 °FScattered clouds.16 mph57%30.04 "HgN/A
3:00 PM41 °FScattered clouds.25 mph49%30.04 "HgN/A
2:30 PM41 °FScattered clouds.21 mph66%30.04 "HgN/A
2:00 PM39 °FScattered clouds.12 mph70%30.01 "HgN/A
1:30 PM37 °FPartly sunny.12 mph81%30.01 "HgN/A
1:00 PM36 °FPartly sunny.13 mph87%30.01 "HgN/A
12:30 PM34 °FSnow flurries. Scattered clouds.14 mph93%30.01 "Hg5 mi
12:00 PM34 °FSnow showers. Partly sunny.16 mph93%30.01 "Hg2 mi
11:30 AM34 °FSnow flurries. Partly sunny.16 mph93%30.01 "Hg4 mi
11:00 AM34 °FSnow flurries. Fog.16 mph93%30.01 "Hg2 mi
10:30 AM34 °FSnow flurries. Fog.15 mph93%29.98 "Hg2 mi
10:00 AM34 °FSnow flurries. Partly sunny.13 mph93%29.98 "HgN/A
9:30 AM32 °FSnow flurries. Partly sunny.16 mph100%29.98 "Hg4 mi
9:00 AM32 °FSnow flurries. Partly sunny.14 mph100%29.95 "HgN/A
8:30 AM32 °FSnow flurries. Partly sunny.12 mph100%29.95 "HgN/A
8:00 AM32 °FBroken clouds.12 mph100%29.95 "HgN/A
7:30 AM32 °FLight snow. Broken clouds.13 mph100%29.92 "HgN/A
7:00 AM32 °FSnow flurries. Broken clouds.18 mph100%29.92 "Hg4 mi
6:30 AM32 °FSnow flurries. Ice fog.16 mph100%29.89 "Hg1 mi
6:00 AM32 °FSnow flurries. Partly cloudy.16 mph100%29.89 "Hg4 mi
5:30 AM32 °FSnow showers. Ice fog.17 mph100%29.86 "Hg1 mi
5:00 AM34 °FSnow flurries. Passing clouds.14 mph87%29.83 "HgN/A
4:30 AM36 °FClear.12 mph81%29.83 "Hg10 mi
4:00 AM34 °FClear.9 mph81%29.83 "Hg5 mi
3:30 AM34 °FClear.5 mph81%29.80 "Hg5 mi
3:00 AM34 °FPassing clouds.5 mph75%29.80 "Hg4 mi
2:30 AM34 °FLight snow. Passing clouds.5 mph75%29.80 "Hg4 mi
2:00 AM34 °FClear.7 mph75%29.80 "Hg4 mi
1:30 AM34 °FClear.8 mph75%29.80 "Hg10 mi
1:00 AM34 °FClear.9 mph81%29.80 "Hg10 mi
12:30 AM34 °FClear.7 mph81%29.80 "Hg10 mi
12:00 AM34 °FClear.6 mph81%29.74 "Hg10 mi
11:30 PM
Mon, Mar 2
34 °FClear.5 mph81%29.77 "Hg10 mi
11:00 PM36 °FClear.6 mph75%29.77 "Hg10 mi
10:30 PM36 °FClear.7 mph75%29.74 "Hg10 mi
10:00 PM34 °FClear.6 mph81%29.74 "Hg10 mi
9:30 PM36 °FClear.8 mph75%29.74 "Hg10 mi
9:00 PM36 °FClear.9 mph75%29.74 "Hg10 mi
Weather by CustomWeather, © 2015

See weather overviewHow to use our weather pages